Flag for Brazil Weather past 2 weeks in Belém, Para, Brazil

Now
86 °F

Passing clouds.


Feels Like: 91 °F
Forecast: N/A
Wind: 9 mph from Northeast

Location: Belem Aeroporto

Current Time: Aug 27, 2014 at 6:42:51 PM

Latest Report: Aug 27, 2014 at 6:00 PM


Visibility: N/A

Pressure: 29.86 "Hg

Humidity: 59%

Dew point: 70 °F

Location of BelémLocation

Historic Weather in Belém — Graph

°F

Belém temperature yesterday

Maximum temperature yesterday: 91 °F (at 3:00 PM)
Minimum temperature yesterday: 73 °F (at 4:00 AM)
Average temperature yesterday: 81 °F

Past Weeks' High & Low Weather Summary

 TemperatureHumidityPressure
High93 °F (Aug 19, 2:00 PM)94% (Aug 12, 9:00 PM)30.01 "Hg (Aug 12, 9:00 PM)
Low73 °F (Aug 12, 9:00 PM)39% (Aug 19, 2:00 PM)29.80 "Hg (Aug 17, 4:00 PM)
Average81 °F78%29.90 "Hg
* Reported Aug 12 5:00 PM — Aug 27 5:00 PM, Belém, Weather by CustomWeather, © 2014

Note: Actual official high and low records may vary slightly from our data, if they occured in-between our weather recording intervals... More about our weather records

Advertising

Belém weather history for previous 24 hours

 ConditionsComfort  
Time TempWeatherWind HumidityBarometerVisibility
5:00 PM
Aug 27
88 °FScattered clouds.10 mph52%29.83 "HgN/A
4:00 PM90 °FScattered clouds.9 mph46%29.83 "HgN/A
3:00 PM90 °FPartly sunny.10 mph49%29.86 "HgN/A
2:00 PM90 °FPartly sunny.14 mph49%29.86 "HgN/A
1:00 PM88 °FPartly sunny.14 mph52%29.89 "HgN/A
12:00 PM86 °FPartly sunny.15 mph62%29.92 "HgN/A
11:00 AM86 °FPartly sunny.12 mph59%29.95 "HgN/A
10:00 AM84 °FScattered clouds.16 mph62%29.95 "HgN/A
9:00 AM81 °FPassing clouds.16 mph74%29.92 "HgN/A
8:00 AM79 °FSunny.13 mph79%29.92 "Hg10 mi
7:00 AM75 °FSunny.7 mph89%29.89 "Hg10 mi
6:00 AM73 °FClear.5 mph94%29.86 "Hg10 mi
5:00 AM75 °FClear.7 mph89%29.86 "Hg10 mi
4:00 AM75 °FClear.9 mph89%29.83 "Hg10 mi
3:00 AM75 °FClear.7 mph89%29.86 "Hg10 mi
2:00 AM75 °FClear.9 mph89%29.86 "Hg10 mi
1:00 AM75 °FClear.10 mph89%29.89 "Hg10 mi
12:00 AM77 °FClear.10 mph83%29.89 "Hg10 mi
11:00 PM
Aug 26
77 °FClear.14 mph83%29.89 "Hg10 mi
10:00 PM79 °FPassing clouds.13 mph79%29.89 "HgN/A
9:00 PM79 °FPassing clouds.14 mph84%29.89 "HgN/A
8:00 PM81 °FPassing clouds.14 mph79%29.86 "HgN/A
7:00 PM82 °FPassing clouds.15 mph74%29.83 "HgN/A
6:00 PM88 °FPassing clouds.7 mph59%29.83 "HgN/A
Weather by CustomWeather, © 2014

See weather overviewHow to use our weather pages